Track COSMOS 1375 now! 10-day predictions COSMOS 1375 is classified as:
1 13259U 82055A 22146.75964248 .00000253 00000-0 30425-3 0 9997 2 13259 65.8303 164.0954 0025178 214.7618 145.1805 13.83384854 8917